[[{"header":{"parameterUnit":"m.s-1","parameterCategory":1,"la1":30.2991,"la2":30.254,"lo1":-89.0895,"lo2":-89.0444,"dy":0.0017,"dx":0.0017,"nx":28,"ny":28,"refTime":"2024-08-17T21:00:00:Z","depth":0,"parameterNumber":2,"parameterNumberName":"U-component_of_WINDS"},"data":[0,0,0,0,0,0,0,0,0,0,0,0,0,0,0,0,0,0,0,0,0,0,0,0,0,0,0,0,0,0,0,0,0,0,0,0,0,0,0,0,0,0,0,0,0,0,0,0,0,0,0,0,0,0,0,0,0,0,2.2893,2.2896,0,2.3116,2.3119,2.3121,2.3137,2.3135,2.3132,2.313,2.3369,2.3378,2.3386,0,0,0,0,0,0,0,0,0,0,0,0,0,2.2492,2.25,2.2893,2.2896,2.2899,2.3116,2.3119,2.3122,2.3138,2.3135,2.3132,2.3129,2.3366,2.3376,2.3387,0,0,0,0,0,0,0,0,0,0,0,0,0,2.2686,2.2502,2.2893,2.2933,2.2938,2.3115,2.3119,2.3123,2.3139,2.3135,2.3131,2.3128,2.3363,2.3375,2.3388,2.3544,0,0,2.3428,2.3434,0,0,0,0,0,0,0,0,2.2675,2.2701,2.2924,2.293,2.2937,2.3095,2.3065,2.3264,2.3139,2.3063,2.313,2.3126,2.3282,2.3301,2.3352,2.3555,2.3565,2.3429,2.3437,2.3443,2.3447,0,0,0,0,0,0,0,2.2662,2.2692,2.2982,2.2927,2.2935,2.2943,2.2966,2.3103,2.3191,2.3069,2.3071,2.3097,2.3285,2.3339,2.3357,2.3569,2.3429,2.3441,2.3449,2.3454,2.3915,2.3919,0,0,0,0,0,0,2.2639,2.268,2.2975,2.2988,2.2794,2.2953,2.2979,2.3048,2.3189,2.3207,2.3099,2.3096,2.3318,2.3342,2.3366,2.356,2.3443,2.3455,2.3462,2.3911,2.3916,2.3921,0,0,0,0,0,0,2.2631,2.2665,2.2966,2.2835,2.2874,2.2964,2.3041,2.3055,2.3109,2.3212,2.3229,2.3138,2.3316,2.3347,2.35,2.3568,2.3461,2.3473,2.3906,2.3912,2.3919,2.3947,0,0,0,0,0,0,2.2619,2.2662,2.2719,2.2836,2.288,2.3092,2.3045,2.3062,2.313,2.3128,2.3253,2.327,2.3316,2.348,2.3512,2.3584,2.3483,2.39,2.3909,2.3916,2.394,2.3954,2.3965,0,0,0,0,0,2.2605,2.272,2.2722,2.2758,2.2953,2.3096,2.3122,2.3169,2.3135,2.3196,2.3263,2.3266,2.3554,2.3495,2.3532,2.3609,2.3896,2.3906,2.3916,2.3935,2.3951,2.3965,0,0,0,0,0,0,2.2612,2.2736,2.274,2.2895,2.2985,2.3098,2.3176,2.3185,2.3288,2.3283,2.334,2.3369,2.352,2.3579,2.3511,2.3768,2.3722,2.374,2.3724,2.374,2.3752,2.3736,2.3494,0,0,0,0,0,2.2631,2.2734,2.2837,2.2965,2.301,2.3085,2.3149,2.3177,2.3274,2.3313,2.3391,2.3487,2.36,2.3673,2.3782,2.3948,2.3978,2.4019,2.4032,2.4041,2.4057,2.4153,2.4173,2.3954,2.3954,2.3954,0,0,2.2674,2.2754,2.2815,2.2969,2.3041,2.315,2.3117,2.3232,2.3315,2.3332,2.348,2.354,2.3652,2.3812,2.3887,2.3867,2.4124,2.4054,2.4061,2.4072,2.4165,2.4186,2.4204,2.3961,2.3959,2.3958,0,0,2.2806,2.2875,2.299,2.3063,2.3173,2.3222,2.325,2.3363,2.3403,2.3551,2.3567,2.3667,2.3859,2.3939,2.4005,2.4168,2.4177,2.4203,2.4269,2.4361,2.4378,2.4394,2.4455,2.4476,2.4217,2.4218,2.4218,0,2.2846,2.3006,2.3049,2.3165,2.3234,2.325,2.337,2.344,2.3581,2.363,2.3604,2.3847,2.3923,2.4104,2.4143,2.4195,2.4232,2.419,2.4371,2.4388,2.4403,2.4463,2.4485,2.422,2.422,2.422,2.4219,0,2.3051,2.3162,2.3242,2.3375,2.3452,2.3569,2.3634,2.3709,2.3731,2.3784,2.3938,2.4029,2.4159,2.4203,2.4227,2.4389,2.4373,2.4359,2.4314,2.4426,2.4483,2.4506,2.4224,2.4223,2.4222,2.4221,0,0,2.3195,2.3349,2.3379,2.344,2.3562,2.3651,2.3771,2.3894,2.3958,2.4055,2.4159,2.4321,2.4309,2.4384,2.4417,2.4497,2.4625,2.4474,2.4478,2.4501,2.4813,2.4824,2.4849,2.463,2.4635,2.4638,2.4804,0,2.3343,2.3551,2.3595,2.3778,2.3883,2.3901,2.4006,2.4095,2.4148,2.4248,2.4309,2.4424,2.4397,2.4443,2.4523,2.4592,2.4689,2.4581,2.4732,2.4737,2.4705,2.4878,2.4891,2.5043,2.4826,2.483,2.4833,0,2.3543,2.3642,2.3834,2.3944,2.399,2.4083,2.4201,2.4294,2.4397,2.4431,2.4514,2.4538,2.4667,2.4614,2.4795,2.4721,2.4785,2.4829,2.4836,2.4854,2.4793,2.4904,2.5092,2.5116,2.4868,2.4865,2.4862,0,2.3633,2.3814,2.3953,2.4005,2.4136,2.4201,2.4259,2.4357,2.4429,2.4534,2.4582,2.47,2.4766,2.4859,2.4917,2.4872,2.5095,2.5046,2.513,2.5128,2.5178,2.5174,2.5381,2.5215,2.5214,2.5214,2.5213,0,2.3795,2.3913,2.3995,2.4081,2.4215,2.4265,2.4397,2.4456,2.4543,2.4644,2.4667,2.4762,2.4831,2.4936,2.4982,2.5127,2.5156,2.519,2.5201,2.5189,2.5185,2.5234,2.5226,2.522,2.5219,2.5218,2.5217,0,2.3918,2.3977,2.4131,2.4242,2.4272,2.4366,2.4463,2.455,2.4603,2.473,2.4763,2.4848,2.4974,2.5039,2.5197,2.5228,2.5392,2.5396,2.5356,2.5361,2.5443,2.5435,2.5691,2.5728,2.5534,2.5536,2.5537,0,2.4019,2.4109,2.4229,2.4297,2.4355,2.4464,2.4537,2.4591,2.4667,2.4791,2.4863,2.4989,2.5092,2.5293,2.5372,2.5493,2.5502,2.5583,2.5521,2.5506,2.5507,2.5501,2.5512,2.5595,2.5597,2.5598,2.5599,0,2.4192,2.4217,2.4319,2.4433,2.4519,2.4612,2.4704,2.4759,2.4829,2.4913,2.504,2.512,2.528,2.5406,2.5533,2.5598,2.5613,2.5618,2.5644,2.5634,2.5609,2.5626,2.5389,2.5613,2.5611,2.561,2.561,2.5609,2.4309,2.4391,2.4489,2.4603,2.4677,2.4763,2.485,2.4913,2.5019,2.5151,2.5177,2.5312,2.5416,2.5587,2.5655,2.5765,2.5749,2.5786,2.5796,2.5805,2.581,2.5589,2.5788,2.5788,2.5787,2.5787,2.5787,0,2.4486,2.4549,2.4654,2.4781,2.4872,2.4872,2.4975,2.5052,2.5169,2.5262,2.5363,2.5511,2.5633,2.5721,2.5847,2.5918,2.5928,2.5949,2.5946,2.5962,2.5816,2.5782,2.5939,2.5939,2.5939,2.5939,2.5939,2.5939,2.4589,2.4729,2.4766,2.4944,2.5008,2.5138,2.5196,2.5277,2.5352,2.5514,2.5615,2.567,2.5762,2.5895,2.6009,2.6032,2.6079,2.61,2.6124,2.5987,2.5971,2.5956,2.5924,2.6109,2.611,2.6261,2.6263,2.6264]},{"header":{"parameterUnit":"m.s-1","parameterCategory":1,"la1":30.2991,"la2":30.254,"lo1":-89.0895,"lo2":-89.0444,"dy":0.0017,"dx":0.0017,"nx":28,"ny":28,"refTime":"2024-08-17T21:00:00:Z","depth":0,"parameterNumber":3,"parameterNumberName":"V-component_of_WINDS"},"data":[0,0,0,0,0,0,0,0,0,0,0,0,0,0,0,0,0,0,0,0,0,0,0,0,0,0,0,0,0,0,0,0,0,0,0,0,0,0,0,0,0,0,0,0,0,0,0,0,0,0,0,0,0,0,0,0,0,0,2.2989,2.299,0,2.3083,2.3084,2.3085,2.306,2.3058,2.3056,2.3054,2.3147,2.3151,2.3155,0,0,0,0,0,0,0,0,0,0,0,0,0,2.278,2.2784,2.2989,2.299,2.2991,2.3083,2.3084,2.3086,2.306,2.3058,2.3055,2.3053,2.3146,2.3151,2.3156,0,0,0,0,0,0,0,0,0,0,0,0,0,2.2872,2.2786,2.2988,2.2989,2.299,2.3083,2.3085,2.3086,2.306,2.3058,2.3055,2.3052,2.3144,2.315,2.3157,2.3253,0,0,2.3176,2.3179,0,0,0,0,0,0,0,0,2.2867,2.288,2.2988,2.2989,2.2991,2.3057,2.3045,2.3142,2.3061,2.3034,2.3054,2.3051,2.3119,2.3127,2.3151,2.3257,2.3261,2.3177,2.318,2.3183,2.3185,0,0,0,0,0,0,0,2.2861,2.2876,2.3026,2.299,2.2991,2.2983,2.2993,2.3063,2.3091,2.3036,2.3034,2.3046,2.3119,2.3145,2.3153,2.3263,2.3176,2.3182,2.3186,2.3189,2.3448,2.3451,0,0,0,0,0,0,2.2854,2.2871,2.3023,2.3029,2.2921,2.2989,2.3001,2.3038,2.309,2.3096,2.3048,2.3044,2.3136,2.3146,2.3156,2.327,2.3183,2.3189,2.3193,2.3445,2.3449,2.3452,0,0,0,0,0,0,2.285,2.2868,2.3019,2.2949,2.2968,2.2996,2.3039,2.3042,2.3068,2.31,2.3104,2.307,2.3134,2.3147,2.3228,2.3273,2.3192,2.3198,2.3441,2.3446,2.345,2.3499,0,0,0,0,0,0,2.2844,2.2867,2.2905,2.2951,2.2972,2.3091,2.3042,2.3046,2.3079,2.3075,2.3121,2.3126,2.3133,2.3219,2.3235,2.328,2.3203,2.3438,2.3444,2.3449,2.3493,2.3504,2.3514,0,0,0,0,0,2.2837,2.2915,2.2907,2.2925,2.3021,2.3094,2.3106,2.3113,2.3083,2.312,2.314,2.3125,2.3266,2.3228,2.3245,2.3293,2.3435,2.3442,2.3449,2.3488,2.3502,2.3514,0,0,0,0,0,0,2.2873,2.2921,2.2913,2.3008,2.3047,2.309,2.3137,2.3128,2.3175,2.3169,2.3175,2.3186,2.3268,2.3289,2.3245,2.3387,2.3345,2.3356,2.337,2.3383,2.3393,2.3385,2.3208,0,0,0,0,0,2.2892,2.2949,2.2988,2.3068,2.3088,2.3109,2.3142,2.3144,2.3184,2.32,2.3226,2.3265,2.3317,2.3352,2.3402,2.3497,2.3504,2.3538,2.3548,2.3556,2.3565,2.3613,2.3627,2.3475,2.3475,2.3475,0,0,2.2932,2.2965,2.3001,2.3076,2.3106,2.3163,2.3123,2.3186,2.3227,2.3209,2.3286,2.3307,2.335,2.3437,2.3477,2.3457,2.3609,2.3565,2.3572,2.3576,2.3621,2.3636,2.3648,2.348,2.3479,2.3478,0,0,2.3033,2.3066,2.3134,2.3166,2.3213,2.3226,2.3242,2.3286,2.3299,2.3377,2.3364,2.3412,2.3504,2.3534,2.3561,2.3672,2.3658,2.3688,2.3741,2.3788,2.38,2.3811,2.3847,2.386,2.3697,2.3697,2.3697,0,2.3076,2.3163,2.3171,2.3234,2.3266,2.3253,2.3321,2.3351,2.3411,2.3432,2.341,2.3523,2.3551,2.3643,2.367,2.3694,2.371,2.3682,2.3798,2.3809,2.3819,2.3853,2.3867,2.3701,2.37,2.37,2.37,0,2.3212,2.3272,2.3322,2.3381,2.3419,2.3484,2.35,2.3537,2.3535,2.355,2.3628,2.3662,2.3717,2.374,2.3739,2.3832,2.3817,2.3797,2.3755,2.3836,2.3869,2.3882,2.3705,2.3704,2.3703,2.3702,0,0,2.3338,2.34,2.3418,2.3443,2.3493,2.3538,2.3602,2.3657,2.3687,2.373,2.3781,2.3858,2.3838,2.3869,2.3872,2.3913,2.3994,2.3887,2.3888,2.3903,2.4094,2.4107,2.4123,2.3986,2.3989,2.3991,2.4089,0,2.3441,2.3554,2.3562,2.3664,2.3717,2.3705,2.376,2.3795,2.3811,2.3857,2.3874,2.3927,2.3899,2.3917,2.3958,2.3976,2.4032,2.3969,2.4031,2.4033,2.4018,2.414,2.4155,2.4247,2.4103,2.4105,2.4106,0,2.3576,2.3622,2.3729,2.3769,2.3792,2.3841,2.3891,2.3936,2.3975,2.3983,2.4017,2.4013,2.4076,2.4034,2.4118,2.4075,2.4101,2.4114,2.4117,2.4121,2.4073,2.4145,2.4276,2.4289,2.4127,2.4125,2.4124,0,2.3653,2.3742,2.3816,2.3839,2.3888,2.3923,2.3945,2.3981,2.4013,2.4056,2.4076,2.4126,2.4152,2.419,2.4198,2.4167,2.4281,2.4241,2.4287,2.4287,2.431,2.4308,2.4445,2.4332,2.4332,2.4331,2.4331,0,2.3766,2.3831,2.3851,2.3897,2.3968,2.3976,2.4046,2.4066,2.4098,2.4145,2.4138,2.4182,2.4192,2.4237,2.4245,2.4312,2.4324,2.4331,2.4331,2.433,2.4329,2.4345,2.4338,2.4335,2.4334,2.4333,2.4333,0,2.3863,2.388,2.3959,2.4,2.4011,2.4062,2.4095,2.4137,2.4152,2.4212,2.4226,2.4248,2.4301,2.4314,2.4377,2.4382,2.446,2.4456,2.4447,2.4446,2.4491,2.4485,2.4641,2.466,2.4537,2.4538,2.4539,0,2.3932,2.3981,2.4027,2.4058,2.4082,2.4133,2.4165,2.4175,2.4208,2.4255,2.4291,2.4343,2.4385,2.447,2.4491,2.4538,2.4533,2.4585,2.454,2.4536,2.453,2.4526,2.453,2.4592,2.4593,2.4595,2.4595,0,2.4052,2.4057,2.4105,2.4155,2.4193,2.4233,2.427,2.4296,2.431,2.4348,2.4402,2.4435,2.4499,2.455,2.4598,2.4618,2.4608,2.461,2.4622,2.462,2.4611,2.4613,2.4467,2.4605,2.4604,2.4604,2.4603,2.4603,2.4135,2.4177,2.4215,2.4267,2.4296,2.4331,2.4372,2.4392,2.4438,2.4491,2.4494,2.4552,2.4588,2.4651,2.4674,2.4718,2.4702,2.4721,2.4726,2.4729,2.4732,2.4607,2.4727,2.4727,2.4726,2.4726,2.4726,0,2.4251,2.4275,2.4323,2.4376,2.4416,2.4405,2.4446,2.448,2.4531,2.4566,2.4607,2.4668,2.4717,2.4742,2.479,2.482,2.4817,2.4832,2.4828,2.4833,2.4745,2.4728,2.4834,2.4834,2.4834,2.4834,2.4834,2.4834,2.4316,2.4386,2.4396,2.448,2.4502,2.456,2.4584,2.4615,2.4642,2.4711,2.4752,2.4768,2.4798,2.4847,2.4891,2.4896,2.4913,2.493,2.4933,2.485,2.4839,2.4829,2.4812,2.4934,2.4935,2.5017,2.5017,2.5018]}]]